CPL8 weather

Cardinal Couriers Heliport
Toronto, Ontario, Canada

Public forecast

Using degrees Celsius for public forecast. Weather courtesy of forecast.io.

METAR (pilot weather report)

Closest report is Lester B. Pearson International Airport, 3.1 nm (5.8 km) NNE. Retrieved 2019/05/23 09:00 UTC (18 minutes ago):

CYYZ 230900Z 16006KT 15SM BKN150 09/05 A2998 RMK AC5 SLP156

TAF (pilot weather forecast)

Closest forecast is Lester B. Pearson International Airport, 3.1 nm (5.8 km) NNE. Retrieved 2019/05/23 09:42 UTC (0 seconds ago):

TAF CYYZ 230838Z 2309/2412 09008KT P6SM SCT180 FM231000 VRB03KT P6SM SCT006 BKN140 TEMPO 2310/2312 2SM BR BKN006 FM231200 14006KT P6SM SCT012 BKN100 TEMPO 2312/2314 BKN012 FM231700 24012G22KT P6SM -SHRA SCT020 OVC080 TEMPO 2317/2319 5SM -SHRA VCTS BR BKN020 OVC060CB FM232000 27025G35KT P6SM SCT030 BECMG 2400/2402 30012G22KT BECMG 2408/2410 30012KT RMK NXT FCST BY 231200Z